User: anonymous   Login
Location: Unspecified
(0.0000°N, 0.0000°E)
Time: 18:45:34
(UTC+00:00)
Language:

ORS OBJECT AA - Orbit

View from above orbital plane
View from above orbital plane
View from above satellite
View from above satellite

Ground track
Ground track

The orbit data is extracted from the following two-line orbital elements,

1 39404U 13064AA  17145.24844413 +.00032311 +00000-0 +21682-3 0  9994
2 39404 040.4990 088.0345 0009036 251.5870 108.3976 15.74410756194044
Epoch (UTC): 25 May 2017 05:57:45
Eccentricity: 0.0009036
inclination: 40.4990°
perigee height: 340 km
apogee height: 352 km
right ascension of ascending node: 88.0345°
argument of perigee: 251.5870°
revolutions per day: 15.74410756
mean anomaly at epoch: 108.3976°
orbit number at epoch: 19404

The dashed part of the orbit path shows where the satellite is in the earth's shadow,  

DLR